Regional Weather Roundup
Issued by NWS

Home | Current Version | Previous Version | Graphics & Text | Print | Product List | Glossary On
Versions: 1 2 3 4 5 6 7 8 9 10 11 12 13 14 15 16 17 18 19 20 21 22 23 24 25 26 27 28 29 30 31 32 33 34 35 36 37 38 39 40 41 42 43 44 45 46 47 48 49 50
000
ASUS44 KMEG 011710
RWRTN
TENNESSEE HOURLY STATE WEATHER ROUNDUP
NATIONAL WEATHER SERVICE MEMPHIS TN
1200 PM CDT SAT AUG 01 2015

TNZ002-004-019-021-049-052-054-088>092-011800-
WEST TENNESSEE

CITY           SKY/WX    TMP DP  RH WIND       PRES   REMARKS
MEMPHIS INTL   MOSUNNY   93  62  35 NE10G20   30.04S HX  93
NWS MEMPHIS      N/A     90 N/A N/A MISG        N/A
JACKSON        SUNNY     92  63  38 MISG      30.04F HX  93
DYERSBURG        N/A    N/A N/A N/A MISG        N/A
PARIS          SUNNY     86  68  54 CALM      30.05F
LEXINGTON      SUNNY     88  66  48 N6        30.03F HX  90
$$

TNZ008-025-027-028-033-062-065-066-011800-
NORTH MIDDLE TENNESSEE

CITY           SKY/WX    TMP DP  RH WIND       PRES   REMARKS
NASHVILLE      MOSUNNY   90  66  45 N8        30.03F HX  92
CLARKSVILLE    SUNNY     87  69  54 N7        30.03F HX  91
SMYRNA         MOSUNNY   94  68  42 N7        30.04F HX  98
CROSSVILLE     MOSUNNY   82  62  50 N6        30.10S
$$

TNZ061-075-076-078-094-096-097-011800-
SOUTH MIDDLE TENNESSEE

CITY           SKY/WX    TMP DP  RH WIND       PRES   REMARKS
FAYETTEVILLE   SUNNY     84  59  42 E8        30.05F
TULLAHOMA      SUNNY     86  63  45 CALM      30.07S
WINCHESTER     SUNNY     88  63  42 NE12      30.05F
MCMINNVILLE    MOSUNNY   86  70  58 VRB6      30.06S HX  90
COLUMBIA       MOSUNNY   90  66  45 VRB6      30.03S HX  92
SHELBYVILLE    MOSUNNY   88  66  48 VRB3      30.05F HX  90
$$

TNZ017-018-042-046-047-011800-
NORTHEAST TENNESSEE

CITY           SKY/WX    TMP DP  RH WIND       PRES   REMARKS
TRI CITIES     MOSUNNY   84  56  38 CALM      30.06F
ELIZABETHTON   SUNNY     81  55  41 N8        30.06F
$$

TNZ012-013-036-069-073-074-011800-
CENTRAL EAST TENNESSEE

CITY           SKY/WX    TMP DP  RH WIND       PRES   REMARKS
KNOXVILLE      MOSUNNY   86  59  39 VRB5      30.03F
OAK RIDGE      SUNNY     88  63  43 CALM      30.05F
GATLINBURG       N/A     84  55  37 NE10      30.04S
MORRISTOWN     SUNNY     84  61  45 CALM      30.06F
$$

TNZ083-085-099-011800-
SOUTHEAST TENNESSEE

CITY           SKY/WX    TMP DP  RH WIND       PRES   REMARKS
CHATTANOOGA    MOSUNNY   88  60  38 N16       30.03F
$$

SKY/WX REPORTED AS FAIR MEANS FEW OR NO CLOUDS BELOW
12 THOUSAND FEET.




USA.gov is the U.S. government's official web portal to all federal, state and local government web resources and services.